CW4611 Weather Reports


Display with metric or nautical units.
time (UTC)temp
F
wind
direction
speed
MPH
gust
MPH
rain 1hr
in
rain 24hr
in
rain mn
in
humidity
%
barometer
mb
20180219000106 34 286 2.0 6.0 0.00 0.00 0.00 70 997.1
20180218235605 34 262 2.0 6.0 0.00 0.00 0.00 68 997.1
20180218235105 34 260 2.0 6.0 0.00 0.00 0.00 67 996.1
20180218234605 35 267 1.0 7.0 0.00 0.00 0.00 65 996.1
20180218234105 35 240 3.0 9.0 0.00 0.00 0.00 65 996.1
20180218233605 35 237 5.0 9.0 0.00 0.00 0.00 64 996.1
20180218233105 36 265 2.0 8.0 0.00 0.00 0.00 64 996.1
20180218232605 36 246 2.0 9.0 0.00 0.00 0.00 63 996.1
20180218232105 36 264 4.0 9.0 0.00 0.00 0.00 63 996.1
20180218231605 36 241 2.0 5.0 0.00 0.00 0.00 61 996.1
20180218231105 37 311 2.0 5.0 0.00 0.00 0.00 61 996.1
20180218230605 37 274 1.0 7.0 0.00 0.00 0.00 60 995.9
20180218230106 37 273 4.0 7.0 0.00 0.00 0.00 60 995.9
20180218225604 37 307 1.0 7.0 0.00 0.00 0.00 60 996.6
20180218225105 37 263 3.0 6.0 0.00 0.00 0.00 59 996.6
20180218224605 37 219 2.0 6.0 0.00 0.00 0.00 58 996.6
20180218224105 37 196 0.0 6.0 0.00 0.00 0.00 57 996.5
20180218223606 38 220 3.0 12.0 0.00 0.00 0.00 56 996.8
20180218223105 38 260 5.0 12.0 0.00 0.00 0.00 55 996.8
20180218222605 38 238 3.0 12.0 0.00 0.00 0.00 54 996.8
20180218222105 38 272 3.0 14.0 0.00 0.00 0.00 53 996.8
20180218221605 39 199 2.0 14.0 0.00 0.00 0.00 52 996.8
20180218221105 39 247 4.0 17.0 0.00 0.00 0.00 50 996.8
20180218220605 40 268 7.0 17.0 0.00 0.00 0.00 49 996.8
20180218220106 40 247 5.0 17.0 0.00 0.00 0.00 47 996.8
20180218215605 41 310 5.0 14.0 0.00 0.00 0.00 46 996.8
20180218215104 41 264 6.0 15.0 0.00 0.00 0.00 44 996.8
20180218214604 42 234 6.0 15.0 0.00 0.00 0.00 42 996.8
20180218214105 42 233 3.0 16.0 0.00 0.00 0.00 41 996.8
20180218213605 42 252 6.0 17.0 0.00 0.00 0.00 40 997.4
20180218213104 43 229 5.0 17.0 0.00 0.00 0.00 38 997.4
20180218212605 43 273 7.0 17.0 0.00 0.00 0.00 36 997.4
20180218212105 43 199 7.0 20.0 0.00 0.00 0.00 36 997.4
20180218211605 43 272 5.0 23.0 0.00 0.00 0.00 36 997.4
20180218211105 44 233 4.0 23.0 0.00 0.00 0.00 35 997.4
20180218210605 44 229 6.0 21.0 0.00 0.00 0.00 35 997.4
20180218210106 44 217 7.0 21.0 0.00 0.00 0.00 36 997.4
20180218205605 44 223 6.0 21.0 0.00 0.00 0.00 36 997.4
20180218205105 44 230 7.0 20.0 0.00 0.00 0.00 36 997.4
20180218204605 44 222 5.0 18.0 0.00 0.00 0.00 35 997.4
20180218204105 44 154 6.0 14.0 0.00 0.00 0.00 35 998.8
20180218203605 44 218 5.0 14.0 0.00 0.00 0.00 35 998.8
20180218203104 45 221 5.0 14.0 0.00 0.00 0.00 35 998.8
20180218202605 44 154 3.0 14.0 0.00 0.00 0.00 35 998.8
20180218202104 44 127 5.0 15.0 0.00 0.00 0.00 35 998.8
20180218201605 43 310 6.0 15.0 0.00 0.00 0.00 35 998.8
20180218201105 43 290 3.0 20.0 0.00 0.00 0.00 36 998.8
20180218200605 43 165 7.0 20.0 0.00 0.00 0.00 36 998.8
20180218200106 43 226 7.0 20.0 0.00 0.00 0.00 36 998.8
20180218195605 43 192 6.0 16.0 0.00 0.00 0.00 36 998.8
20180218195104 43 203 5.0 24.0 0.00 0.00 0.00 35 998.8
20180218194605 43 152 6.0 24.0 0.00 0.00 0.00 35 998.8
20180218194105 43 198 6.0 18.0 0.00 0.00 0.00 36 998.8
20180218193605 43 183 6.0 18.0 0.00 0.00 0.00 36 999.3
20180218193105 42 241 4.0 14.0 0.00 0.00 0.00 37 999.3
20180218192611 42 190 6.0 14.0 0.00 0.00 0.00 38 999.3
20180218192105 41 194 7.0 17.0 0.00 0.00 0.00 38 999.3
20180218191605 41 210 5.0 17.0 0.00 0.00 0.00 39 999.3
20180218191105 40 192 4.0 12.0 0.00 0.00 0.00 39 999.3
20180218190605 39 201 5.0 14.0 0.00 0.00 0.00 40 1000.2
20180218190106 39 223 6.0 14.0 0.00 0.00 0.00 39 1000.2
20180218185605 39 231 6.0 14.0 0.00 0.00 0.00 39 1000.2
20180218185105 39 204 5.0 17.0 0.00 0.00 0.00 40 1000.2
20180218184605 38 170 5.0 20.0 0.00 0.00 0.00 40 1000.2
20180218184105 38 202 6.0 20.0 0.00 0.00 0.00 40 1000.2
20180218183605 38 194 6.0 18.0 0.00 0.00 0.00 39 1000.7
20180218183105 38 114 3.0 20.0 0.00 0.00 0.00 40 1000.7
20180218182605 38 184 9.0 20.0 0.00 0.00 0.00 40 1000.9
20180218182104 38 170 7.0 29.0 0.00 0.00 0.00 39 1000.9
20180218181605 38 214 4.0 29.0 0.00 0.00 0.00 40 1000.9
20180218181105 38 153 9.0 18.0 0.00 0.00 0.00 40 1000.9
20180218180605 38 166 8.0 23.0 0.00 0.00 0.00 40 1001.0
20180218180106 38 124 7.0 23.0 0.00 0.00 0.00 40 1000.9
20180218175605 37 172 7.0 20.0 0.00 0.00 0.00 40 1001.0
20180218175105 37 162 7.0 18.0 0.00 0.00 0.00 40 1001.3
20180218174605 37 180 6.0 18.0 0.00 0.00 0.00 40 1001.3
20180218174105 38 193 6.0 16.0 0.00 0.00 0.00 40 1001.5
20180218173605 38 220 8.0 16.0 0.00 0.00 0.00 40 1001.7
20180218173106 38 190 7.0 25.0 0.00 0.00 0.00 40 1001.7
20180218172104 38 207 8.0 17.0 0.00 0.00 0.00 40 1002.3
20180218171604 38 210 6.0 15.0 0.00 0.00 0.00 40 1002.3
20180218171104 38 142 3.0 12.0 0.00 0.00 0.00 40 1002.3
20180218170605 38 216 5.0 12.0 0.00 0.00 0.00 40 1002.3
20180218170106 38 228 5.0 12.0 0.00 0.00 0.00 40 1002.3
20180218165605 37 246 5.0 13.0 0.00 0.00 0.00 40 1001.8
20180218165104 37 244 3.0 17.0 0.00 0.00 0.00 41 1001.9
20180218164605 37 215 7.0 17.0 0.00 0.00 0.00 41 1001.9
20180218164105 37 249 5.0 16.0 0.00 0.00 0.00 40 1002.0
20180218163605 37 121 5.0 16.0 0.00 0.00 0.00 41 1002.2
20180218163105 37 196 4.0 14.0 0.00 0.00 0.00 42 1002.0
20180218162604 36 162 5.0 14.0 0.00 0.00 0.00 41 1002.8
20180218162105 36 290 2.0 12.0 0.00 0.00 0.00 41 1002.8
20180218161605 36 253 5.0 12.0 0.00 0.00 0.00 41 1002.8
20180218161106 36 261 5.0 12.0 0.00 0.00 0.00 41 1002.8
20180218160605 36 284 2.0 15.0 0.00 0.00 0.00 42 1002.8
20180218160106 36 243 5.0 15.0 0.00 0.00 0.00 41 1002.9
20180218155605 36 191 3.0 15.0 0.00 0.00 0.00 42 1003.1
20180218155105 36 228 4.0 15.0 0.00 0.00 0.00 41 1003.1
20180218154627 36 135 3.0 13.0 0.00 0.00 0.00 41 1003.1
20180218154105 36 234 5.0 13.0 0.00 0.00 0.00 41 1003.1
20180218153605 36 218 2.0 10.0 0.00 0.00 0.00 41 1003.4
20180218153105 36 190 3.0 14.0 0.00 0.00 0.00 41 1003.4
20180218152605 36 275 3.0 14.0 0.00 0.00 0.00 40 1003.2
20180218152105 36 318 3.0 14.0 0.00 0.00 0.00 42 1003.2
20180218151604 36 210 2.0 14.0 0.00 0.00 0.00 41 1003.5
20180218151105 36 253 4.0 14.0 0.00 0.00 0.00 40 1003.5
20180218150604 36 105 4.0 13.0 0.00 0.00 0.00 40 1003.4
20180218150106 36 231 4.0 13.0 0.00 0.00 0.00 41 1003.4
20180218145605 36 235 3.0 13.0 0.00 0.00 0.00 40 1003.0
20180218145105 36 205 4.0 13.0 0.00 0.00 0.00 40 1003.0
20180218144605 36 204 3.0 13.0 0.00 0.00 0.00 40 1003.0
20180218144105 36 205 6.0 13.0 0.00 0.00 0.00 39 1003.0
20180218143606 36 264 5.0 12.0 0.00 0.00 0.00 39 1004.0
20180218143107 36 173 3.0 12.0 0.00 0.00 0.00 40 1004.0
20180218142607 36 227 5.0 12.0 0.00 0.00 0.00 40 1004.0
20180218142107 36 257 1.0 12.0 0.00 0.00 0.00 40 1004.0
20180218141606 36 260 2.0 12.0 0.00 0.00 0.00 39 1004.0
20180218141106 36 236 3.0 10.0 0.00 0.00 0.00 40 1004.0
20180218140607 37 171 0.0 12.0 0.00 0.00 0.00 39 1004.0
20180218140108 37 169 5.0 12.0 0.00 0.00 0.00 39 1003.9
20180218135607 37 245 4.0 12.0 0.00 0.00 0.00 40 1003.6
20180218135107 37 199 5.0 12.0 0.00 0.00 0.00 39 1003.6
20180218134607 36 267 3.0 12.0 0.00 0.00 0.00 39 1003.8
20180218134107 36 170 4.0 12.0 0.00 0.00 0.00 39 1003.8
20180218133607 36 217 4.0 12.0 0.00 0.00 0.00 40 1003.8
20180218133106 36 195 2.0 12.0 0.00 0.00 0.00 40 1003.9
20180218132607 36 286 4.0 12.0 0.00 0.00 0.00 40 1003.9
20180218132107 36 260 5.0 14.0 0.00 0.00 0.00 40 1004.7
20180218131607 36 241 5.0 14.0 0.00 0.00 0.00 39 1004.7
20180218131107 36 255 5.0 15.0 0.00 0.00 0.00 39 1004.7
20180218130608 36 250 5.0 15.0 0.00 0.00 0.00 40 1004.7
20180218130108 36 228 7.0 15.0 0.00 0.00 0.00 40 1004.7
20180218125607 37 267 3.0 15.0 0.00 0.00 0.00 40 1004.7
20180218125107 37 271 2.0 14.0 0.00 0.00 0.00 39 1004.7
20180218124607 37 253 5.0 13.0 0.00 0.00 0.00 40 1004.7
20180218124107 37 217 4.0 13.0 0.00 0.00 0.00 39 1004.7
20180218123606 37 275 7.0 13.0 0.00 0.00 0.00 39 1004.7
20180218123107 37 232 4.0 14.0 0.00 0.00 0.00 39 1004.5
20180218122607 37 236 7.0 18.0 0.00 0.00 0.00 39 1004.5
20180218122107 37 148 2.0 20.0 0.00 0.00 0.00 39 1004.5
20180218121607 37 215 3.0 20.0 0.00 0.00 0.00 39 1004.5
20180218121107 37 47 3.0 14.0 0.00 0.00 0.00 39 1004.5
20180218120607 37 195 4.0 12.0 0.00 0.00 0.00 39 1004.5
20180218120108 37 209 3.0 12.0 0.00 0.00 0.00 39 1004.5
20180218115607 38 199 4.0 15.0 0.00 0.00 0.00 39 1004.5
20180218115107 38 192 4.0 24.0 0.00 0.00 0.00 38 1004.5
20180218114607 38 195 7.0 24.0 0.00 0.00 0.00 38 1004.5
20180218114107 38 208 7.0 20.0 0.00 0.00 0.00 39 1004.6
20180218113607 38 171 5.0 20.0 0.00 0.00 0.00 38 1004.8
20180218113107 38 175 8.0 18.0 0.00 0.00 0.00 38 1004.8
20180218112607 38 183 5.0 17.0 0.00 0.00 0.00 38 1004.8
20180218112107 38 326 5.0 17.0 0.00 0.00 0.00 38 1004.8
20180218111607 38 159 3.0 21.0 0.00 0.00 0.00 38 1004.8
20180218111107 38 250 7.0 21.0 0.00 0.00 0.00 38 1004.8
20180218110607 38 213 6.0 13.0 0.00 0.00 0.00 38 1004.8
20180218110108 38 313 3.0 12.0 0.00 0.00 0.00 38 1004.8
20180218105606 38 225 4.0 20.0 0.00 0.00 0.00 37 1005.1
20180218105107 38 223 5.0 20.0 0.00 0.00 0.00 38 1005.4
20180218104607 38 162 6.0 20.0 0.00 0.00 0.00 37 1005.4
20180218104107 38 195 5.0 20.0 0.00 0.00 0.00 37 1005.4
20180218103607 38 206 3.0 20.0 0.00 0.00 0.00 38 1005.5
20180218103106 38 196 3.0 12.0 0.00 0.00 0.00 38 1006.3
20180218102606 38 182 5.0 12.0 0.00 0.00 0.00 38 1006.3
20180218102107 38 213 5.0 13.0 0.00 0.00 0.00 38 1006.3
20180218101607 39 218 3.0 24.0 0.00 0.00 0.00 37 1006.3
20180218101107 38 219 9.0 24.0 0.00 0.00 0.00 37 1006.7
20180218100607 39 138 5.0 12.0 0.00 0.00 0.00 38 1006.7
20180218100108 39 203 5.0 13.0 0.00 0.00 0.00 38 1006.7
20180218095107 39 213 3.0 10.0 0.00 0.00 0.00 38 1006.7
20180218094607 39 234 2.0 12.0 0.00 0.00 0.00 39 1006.7
20180218094107 39 276 5.0 12.0 0.00 0.00 0.00 37 1006.7
20180218093607 39 125 2.0 9.0 0.00 0.00 0.00 38 1007.2
20180218093107 39 223 4.0 15.0 0.00 0.00 0.00 39 1007.2
20180218092607 39 178 5.0 15.0 0.00 0.00 0.00 38 1007.2
20180218092107 39 106 5.0 12.0 0.00 0.00 0.00 38 1007.2
20180218091606 39 204 3.0 12.0 0.00 0.00 0.00 39 1007.2
20180218091106 39 200 5.0 12.0 0.00 0.00 0.00 38 1007.2
20180218090607 39 335 3.0 12.0 0.00 0.00 0.00 40 1007.2
20180218090108 39 254 3.0 12.0 0.00 0.00 0.00 39 1007.2
20180218085606 39 220 6.0 12.0 0.00 0.00 0.00 39 1007.3
20180218085107 39 144 5.0 12.0 0.00 0.00 0.00 38 1007.3
20180218084606 40 219 3.0 14.0 0.00 0.00 0.00 39 1007.6
20180218084106 40 211 7.0 14.0 0.00 0.00 0.00 38 1007.6
20180218083607 40 213 5.0 14.0 0.00 0.00 0.00 38 1007.6
20180218083108 40 64 3.0 12.0 0.00 0.00 0.00 38 1007.6
20180218082607 40 250 3.0 14.0 0.00 0.00 0.00 38 1007.6
20180218082107 40 259 3.0 14.0 0.00 0.00 0.00 37 1007.8
20180218081607 40 221 3.0 14.0 0.00 0.00 0.00 37 1008.1
20180218081107 40 231 1.0 14.0 0.00 0.00 0.00 38 1008.1
20180218080607 40 242 7.0 14.0 0.00 0.00 0.00 38 1008.2
20180218080108 40 227 3.0 12.0 0.00 0.00 0.00 37 1008.2
20180218075607 40 270 4.0 12.0 0.00 0.00 0.00 38 1007.7
20180218075106 40 173 3.0 20.0 0.00 0.00 0.00 38 1007.7
20180218074607 40 172 5.0 20.0 0.00 0.00 0.00 37 1007.8
20180218074107 40 252 6.0 17.0 0.00 0.00 0.00 37 1007.8
20180218073606 40 226 5.0 14.0 0.00 0.00 0.00 37 1007.8
20180218073106 40 271 5.0 12.0 0.00 0.00 0.00 37 1007.8
20180218072607 40 233 5.0 12.0 0.00 0.00 0.00 38 1007.8
20180218072106 40 271 5.0 12.0 0.00 0.00 0.00 38 1007.8
20180218071606 39 220 4.0 18.0 0.00 0.00 0.00 38 1007.7
20180218071109 39 221 8.0 18.0 0.00 0.00 0.00 38 1007.7
20180218070607 39 255 3.0 14.0 0.00 0.00 0.00 38 1007.7
20180218070108 39 248 6.0 13.0 0.00 0.00 0.00 39 1008.2
20180218065607 39 229 2.0 13.0 0.00 0.00 0.00 39 1008.2
20180218065107 39 236 3.0 9.0 0.00 0.00 0.00 39 1008.2
20180218064607 39 307 3.0 12.0 0.00 0.00 0.00 39 1008.3
20180218064106 39 90 2.0 12.0 0.00 0.00 0.00 39 1008.5
20180218063607 39 210 3.0 12.0 0.00 0.00 0.00 38 1008.5
20180218063106 39 259 3.0 12.0 0.00 0.00 0.00 39 1009.0
20180218062607 39 199 5.0 12.0 0.00 0.00 0.00 38 1009.0
20180218062106 39 226 4.0 12.0 0.00 0.00 0.00 38 1009.0
20180218061606 39 256 3.0 12.0 0.00 0.00 0.00 39 1009.5
20180218061107 39 254 3.0 13.0 0.00 0.00 0.00 38 1009.5
20180218060606 39 230 6.0 13.0 0.00 0.00 0.00 39 1009.5
20180218060108 39 196 2.0 13.0 0.00 0.00 0.00 39 1009.5
20180218055607 39 264 5.0 13.0 0.00 0.00 0.00 38 1009.2
20180218055107 39 123 2.0 12.0 0.00 0.00 0.00 38 1009.4
20180218054607 39 178 2.0 12.0 0.00 0.00 0.00 38 1009.7
20180218054107 39 228 3.0 12.0 0.00 0.00 0.00 38 1009.7
20180218053606 40 150 1.0 6.0 0.00 0.00 0.00 38 1009.7
20180218053106 40 149 2.0 10.0 0.00 0.00 0.00 36 1010.2
20180218052607 40 321 3.0 17.0 0.00 0.00 0.00 37 1010.2
20180218052106 40 213 4.0 17.0 0.00 0.00 0.00 36 1010.2
20180218051607 40 275 3.0 15.0 0.00 0.00 0.00 37 1010.8
20180218051106 40 249 6.0 15.0 0.00 0.00 0.00 37 1010.8
20180218050606 40 307 5.0 14.0 0.00 0.00 0.00 37 1010.8
20180218050107 40 175 5.0 21.0 0.00 0.00 0.00 37 1010.8
20180218045607 40 193 5.0 21.0 0.00 0.00 0.00 37 1010.8
20180218045106 39 164 9.0 22.0 0.00 0.00 0.00 38 1010.2
20180218044606 39 212 6.0 22.0 0.00 0.00 0.00 38 1010.7
20180218044106 38 170 4.0 22.0 0.00 0.00 0.00 38 1010.7
20180218043606 37 188 4.0 17.0 0.00 0.00 0.00 38 1010.7
20180218043106 37 187 3.0 17.0 0.00 0.00 0.00 39 1010.7
20180218042606 36 181 5.0 17.0 0.00 0.00 0.00 39 1010.7
20180218042106 36 174 4.0 13.0 0.00 0.00 0.00 38 1010.7
20180218041607 35 228 3.0 13.0 0.00 0.00 0.00 39 1010.8
20180218041106 35 225 2.0 12.0 0.00 0.00 0.00 39 1010.9
20180218040606 35 267 2.0 12.0 0.00 0.00 0.00 39 1010.9
20180218040108 35 30 4.0 12.0 0.00 0.00 0.00 39 1010.9
20180218035607 35 320 2.0 10.0 0.00 0.00 0.00 40 1011.1
20180218035106 35 301 3.0 10.0 0.00 0.00 0.00 38 1011.3
20180218034607 35 355 2.0 3.0 0.00 0.00 0.00 37 1011.9
20180218034106 36 355 1.0 3.0 0.00 0.00 0.00 38 1011.9
20180218033606 36 355 2.0 5.0 0.00 0.00 0.00 37 1011.9
20180218033106 36 355 2.0 5.0 0.00 0.00 0.00 37 1011.9
20180218032606 36 317 3.0 5.0 0.00 0.00 0.00 36 1012.5
20180218032133 36 300 0.0 10.0 0.00 0.00 0.00 36 1012.5
20180218031607 36 300 2.0 10.0 0.00 0.00 0.00 35 1012.5
20180218031107 35 59 3.0 10.0 0.00 0.00 0.00 35 1012.5
20180218030607 35 355 2.0 6.0 0.00 0.00 0.00 37 1012.5
20180218030107 35 355 3.0 6.0 0.00 0.00 0.00 39 1012.5
20180218025606 35 8 5.0 6.0 0.00 0.00 0.00 41 1012.8
20180218025106 36 344 2.0 6.0 0.00 0.00 0.00 38 1012.8
20180218024606 36 323 2.0 6.0 0.00 0.00 0.00 37 1013.4
20180218024106 36 319 3.0 5.0 0.00 0.00 0.00 35 1013.4
20180218023607 37 65 2.0 6.0 0.00 0.00 0.00 35 1013.4
20180218023106 37 13 0.0 6.0 0.00 0.00 0.00 34 1013.4
20180218022607 37 34 2.0 6.0 0.00 0.00 0.00 34 1013.4
20180218022106 37 59 0.0 5.0 0.00 0.00 0.00 34 1013.4
20180218021606 38 59 0.0 6.0 0.00 0.00 0.00 33 1013.6
20180218021106 38 87 2.0 10.0 0.00 0.00 0.00 32 1014.3
20180218020607 38 90 3.0 10.0 0.00 0.00 0.00 32 1014.3
20180218020108 37 119 6.0 10.0 0.00 0.00 0.00 32 1014.3
20180218015607 37 86 5.0 10.0 0.00 0.00 0.00 33 1013.9
20180218015106 37 106 5.0 10.0 0.00 0.00 0.00 32 1013.9
20180218014606 37 70 1.0 8.0 0.00 0.00 0.00 33 1014.1
20180218014106 37 70 2.0 7.0 0.00 0.00 0.00 32 1014.1
20180218013607 37 139 1.0 5.0 0.00 0.00 0.00 33 1014.1
20180218013106 37 142 0.0 2.0 0.00 0.00 0.00 32 1014.1
20180218012606 37 142 0.0 1.0 0.00 0.00 0.00 32 1014.1
20180218012107 38 142 0.0 12.0 0.00 0.00 0.00 32 1014.1
20180218011607 38 142 2.0 12.0 0.00 0.00 0.00 32 1014.1
20180218011107 38 148 2.0 12.0 0.00 0.00 0.00 31 1014.1
20180218010606 38 149 2.0 7.0 0.00 0.00 0.00 32 1014.1
20180218010108 39 124 1.0 3.0 0.00 0.00 0.00 31 1014.1
20180218005606 39 112 0.0 6.0 0.00 0.00 0.00 30 1014.6
20180218005106 39 149 2.0 6.0 0.00 0.00 0.00 30 1014.6
20180218004606 39 62 2.0 3.0 0.00 0.00 0.00 31 1014.6
20180218004106 39 80 3.0 7.0 0.00 0.00 0.00 29 1014.6
20180218003606 40 207 2.0 7.0 0.00 0.00 0.00 29 1014.6
20180218003106 40 198 3.0 6.0 0.00 0.00 0.00 29 1014.6
20180218002606 40 131 0.0 6.0 0.00 0.00 0.00 30 1014.6
20180218002106 41 118 3.0 6.0 0.00 0.00 0.00 30 1014.6
20180218001606 41 189 3.0 6.0 0.00 0.00 0.00 30 1014.7
20180218001106 41 218 3.0 12.0 0.00 0.00 0.00 29 1014.8
20180218000607 42 133 4.0 12.0 0.00 0.00 0.00 29 1015.7